Vorticity
9 8 8 7 11 9 13 16 14 22 4 51 7 10 -11 -9 9 14 5 4 24 12 9 24 29 6 -7 -10 19 28 10 6 8 10 15 20 2 2 9 -5 16 12 13 14
8 8 8 9 13 20 17 13 16 17 39 15 -1 19 10 3 -19 12 6 2 19 5 9 15 7 12 -1 9 1 9 6 -6 16 20 16 22 16 4 8 2 -15 13 0 20
8 9 10 15 22 19 15 13 12 -6 31 -10 17 19 19 8 13 26 33 3 14 9 10 4 3 -5 -6 2 21 -6 20 11 -1 -7 -10 -16 5 11 20 7 11 15 1 23
7 8 12 19 24 16 9 16 -12 20 -13 1 6 9 12 14 29 18 9 19 13 23 11 7 11 18 10 4 11 7 19 -2 6 12 12 8 2 8 3 1 -7 -1 28 16
9 12 38 35 30 21 15 7 8 5 7 38 2 12 6 3 1 9 11 18 12 24 10 -2 -2 10 12 -5 12 -0 23 12 10 7 16 11 8 11 9 9 12 14 5 -3
14 34 8 17 11 17 13 14 8 29 8 -5 54 -3 20 2 7 9 13 22 14 44 5 1 6 14 14 3 15 11 24 -1 4 18 1 34 20 29 20 12 13 13 8 15
21 33 18 13 12 17 12 16 17 16 3 10 -6 29 13 9 11 7 15 39 33 15 -2 18 19 14 22 31 22 14 2 9 16 -2 8 13 17 6 25 35 28 26 14 17
18 23 19 13 16 15 13 18 12 13 14 25 27 5 6 10 14 23 15 8 20 14 7 12 26 18 14 3 15 20 25 18 5 11 15 6 -5 19 4 -3 14 18 11 16
20 18 15 14 15 16 16 12 32 8 4 3 5 8 26 20 15 6 14 12 16 2 16 18 6 9 6 8 16 12 27 13 -3 11 6 11 18 10 14 12 -1 10 10 8
11 11 14 15 15 15 13 17 9 7 36 11 9 16 16 9 12 12 21 15 10 8 12 12 14 9 20 14 17 15 13 24 11 -7 9 11 41 -2 2 14 21 26 20 16
2 17 12 11 12 4 12 15 22 -2 16 12 9 11 14 16 13 2 13 21 -11 12 11 9 7 6 5 2 16 5 19 13 14 12 6 14 16 14 16 32 3 -3 -5 -2
6 14 25 7 9 15 10 8 10 21 26 19 4 11 9 11 8 8 10 7 3 4 5 2 10 0 9 7 11 6 -0 12 7 15 14 0 1 1 -6 -1 -8 -4 2 5
6 7 18 17 23 18 12 7 16 12 13 -2 6 11 2 13 9 21 19 19 15 14 -4 8 9 16 2 13 7 1 -4 20 9 13 2 -10 7 10 9 7 6 12 16 14
7 10 13 8 10 8 13 19 21 6 29 -13 15 15 17 -10 17 11 6 15 35 17 4 2 9 7 15 2 1 12 25 15 3 10 5 16 27 12 14 14 7 2 9 13
7 14 18 9 12 16 17 13 6 8 12 16 22 14 12 20 16 8 1 3 13 18 10 11 8 18 12 0 23 19 15 -6 -0 -2 15 15 5 5 1 -1 1 18 22 22
15 15 7 16 16 8 13 10 15 26 24 23 14 0 -2 4 15 10 20 17 11 13 12 13 10 13 8 19 9 7 -15 27 10 11 14 15 30 31 26 24 21 22 28 32
7 10 17 15 9 11 15 11 21 16 0 14 9 3 10 -7 24 27 18 20 21 22 17 18 10 8 21 12 7 14 9 8 11 16 19 16 17 15 15 17 17 20 19 16
5 7 18 11 7 13 13 9 8 7 8 22 -22 7 17 3 22 20 14 15 13 15 19 19 23 23 17 11 4 8 15 18 17 16 16 18 17 15 12 12 12 10 10 11
2 7 15 11 13 13 11 9 10 12 3 13 -21 14 19 8 16 17 13 18 6 10 14 20 10 11 8 18 23 20 17 18 15 13 13 12 11 9 9 7 8 8 8 8
5 11 17 12 13 8 7 11 7 9 5 -1 -3 11 9 19 20 12 22 8 14 6 10 9 4 8 8 8 15 19 19 15 14 14 13 9 8 8 8 7 7 7 7 6
14 14 15 14 14 18 15 1 23 13 17 -13 5 13 13 19 17 15 14 10 12 8 -2 21 10 -0 -0 2 5 5 9 12 13 12 11 11 10 9 9 8 9 8 6 6
12 16 22 19 18 10 9 6 2 17 -11 4 6 16 24 20 23 15 6 13 9 12 8 15 9 1 3 5 10 8 5 2 2 2 4 6 9 11 12 12 11 9 8 7
13 25 20 22 8 8 8 7 -8 6 6 5 8 11 31 6 15 12 14 10 9 11 10 9 6 8 6 1 1 2 4 3 6 6 6 5 4 2 1 1 3 7 10 11
23 24 14 14 10 5 -7 6 9 5 7 6 9 16 25 7 20 11 14 3 17 13 12 1 1 3 1 -2 -0 7 10 11 11 10 10 11 9 10 8 9 11 12 10 7
26 26 13 4 -9 13 9 9 8 5 6 5 9 23 27 18 15 10 13 14 11 10 4 -2 1 0 -1 9 18 17 14 14 15 17 16 15 15 18 12 15 13 8 10 12
41 10 -5 5 11 11 10 8 7 6 5 10 13 27 14 13 5 17 10 11 9 -9 -2 -0 6 17 21 11 8 8 9 11 12 13 12 11 11 13 23 15 5 0 6 14
-5 1 16 13 10 10 8 8 8 6 7 10 24 22 8 6 23 11 13 -4 -6 0 10 15 19 6 8 7 5 11 16 18 18 20 22 21 18 17 13 12 6 6 15 22
Height
3052 3043 3035 3026 3019 3009 3000 2995 2992 2989 2982 2982 2978 2976 2974 2972 2970 2969 2967 2966 2965 2964 2964 2962 2960 2958 2958 2956 2956 2955 2955 2955 2954 2953 2952 2952 2954 2956 2957 2957 2961 2961 2962 2968
3048 3040 3030 3021 3012 3004 2994 2990 2987 2986 2980 2978 2978 2976 2973 2970 2968 2967 2965 2964 2963 2963 2961 2961 2958 2957 2957 2956 2956 2955 2955 2954 2953 2952 2953 2951 2953 2955 2956 2956 2958 2960 2963 2968
3043 3034 3024 3014 3006 3000 2993 2987 2983 2983 2981 2980 2978 2974 2971 2968 2966 2963 2961 2960 2959 2959 2957 2957 2955 2955 2955 2954 2954 2954 2954 2953 2955 2955 2953 2954 2954 2954 2955 2956 2958 2959 2962 2964
3037 3027 3017 3007 3000 2995 2992 2988 2985 2981 2979 2977 2974 2973 2969 2965 2961 2961 2959 2956 2955 2954 2954 2952 2951 2952 2952 2952 2952 2952 2953 2952 2952 2951 2951 2950 2952 2953 2954 2955 2957 2959 2961 2964
3031 3021 3009 3002 2997 2992 2989 2986 2982 2976 2975 2973 2971 2969 2966 2963 2959 2959 2956 2952 2952 2949 2948 2951 2949 2949 2949 2948 2949 2950 2949 2949 2949 2948 2947 2947 2947 2949 2950 2951 2953 2955 2958 2962
3025 3014 3006 3001 2995 2990 2984 2983 2981 2977 2974 2971 2967 2965 2963 2961 2959 2954 2953 2948 2945 2943 2945 2946 2946 2945 2944 2944 2943 2944 2945 2947 2948 2946 2945 2943 2945 2943 2944 2946 2948 2952 2954 2957
3021 3011 3005 3001 2995 2990 2986 2982 2978 2975 2971 2970 2968 2964 2962 2959 2956 2953 2948 2945 2942 2944 2943 2943 2942 2940 2939 2938 2939 2940 2942 2943 2946 2945 2945 2946 2943 2942 2942 2942 2944 2948 2951 2954
3019 3011 3004 2999 2995 2990 2985 2981 2977 2974 2969 2967 2965 2964 2960 2957 2954 2951 2948 2945 2945 2943 2942 2940 2938 2938 2938 2937 2936 2936 2937 2939 2942 2942 2943 2943 2942 2942 2944 2944 2946 2948 2950 2953
3019 3011 3004 2999 2994 2989 2985 2981 2976 2973 2971 2968 2965 2961 2958 2954 2951 2950 2948 2945 2943 2942 2941 2940 2940 2940 2939 2938 2936 2935 2934 2936 2940 2941 2942 2941 2941 2943 2944 2945 2947 2949 2951 2953
3018 3010 3004 2999 2994 2989 2985 2980 2976 2972 2969 2968 2964 2959 2955 2953 2951 2949 2947 2946 2945 2943 2943 2942 2942 2941 2940 2938 2936 2935 2935 2936 2938 2940 2941 2941 2941 2942 2944 2947 2952 2948 2951 2953
3018 3011 3004 2999 2994 2990 2986 2981 2976 2973 2968 2965 2962 2959 2956 2953 2951 2949 2949 2948 2946 2945 2944 2944 2944 2943 2942 2941 2939 2938 2938 2937 2939 2941 2942 2944 2943 2944 2946 2947 2947 2949 2951 2952
3017 3010 3003 2999 2994 2989 2986 2981 2976 2971 2968 2966 2963 2960 2957 2954 2952 2950 2948 2948 2946 2946 2945 2945 2944 2944 2943 2942 2941 2941 2942 2942 2941 2943 2942 2942 2943 2944 2945 2945 2946 2947 2948 2949
3014 3009 3003 2998 2992 2988 2985 2981 2976 2972 2969 2967 2964 2960 2958 2954 2952 2949 2948 2946 2945 2945 2945 2945 2945 2944 2943 2942 2942 2941 2941 2940 2941 2942 2941 2941 2941 2941 2941 2942 2942 2943 2943 2943
3013 3008 3003 2997 2992 2988 2984 2980 2976 2973 2969 2967 2964 2960 2958 2956 2952 2949 2947 2944 2942 2943 2943 2943 2943 2943 2942 2942 2942 2941 2940 2939 2939 2939 2938 2938 2937 2937 2938 2938 2938 2938 2937 2938
3011 3006 3001 2997 2991 2986 2982 2979 2976 2972 2971 2967 2963 2961 2959 2955 2952 2950 2947 2945 2943 2942 2941 2941 2942 2941 2942 2941 2940 2939 2939 2938 2938 2937 2936 2935 2934 2934 2934 2934 2933 2932 2931 2930
3010 3005 3001 2995 2990 2985 2982 2979 2976 2971 2968 2965 2964 2962 2959 2956 2952 2948 2945 2943 2941 2941 2940 2940 2940 2941 2941 2940 2940 2939 2938 2936 2935 2934 2932 2930 2929 2928 2929 2930 2929 2927 2926 2926
3010 3005 3000 2995 2991 2986 2983 2982 2978 2973 2970 2968 2965 2962 2959 2956 2951 2946 2943 2941 2939 2939 2939 2939 2939 2939 2939 2939 2939 2938 2937 2935 2933 2931 2930 2929 2927 2927 2928 2928 2928 2927 2927 2928
3010 3005 3000 2996 2991 2987 2983 2981 2978 2975 2973 2969 2968 2964 2959 2955 2950 2946 2944 2942 2941 2940 2939 2939 2938 2938 2938 2939 2938 2936 2935 2933 2931 2930 2929 2928 2928 2928 2928 2929 2929 2929 2929 2930
3007 3004 2999 2996 2992 2987 2985 2982 2979 2976 2976 2971 2969 2964 2959 2955 2950 2947 2945 2944 2943 2943 2941 2940 2941 2940 2940 2939 2937 2935 2933 2932 2931 2930 2930 2930 2930 2930 2931 2931 2931 2931 2932 2932
3005 3001 2996 2993 2991 2987 2985 2982 2979 2976 2974 2971 2968 2964 2959 2956 2951 2948 2946 2945 2945 2945 2945 2943 2942 2942 2941 2939 2938 2936 2934 2933 2932 2932 2931 2931 2931 2931 2931 2932 2932 2932 2932 2932
3003 2998 2994 2991 2989 2987 2984 2982 2980 2977 2974 2971 2968 2963 2958 2955 2952 2949 2948 2947 2946 2946 2946 2944 2944 2944 2942 2941 2940 2938 2936 2934 2933 2933 2932 2931 2931 2931 2931 2931 2931 2931 2931 2930
3000 2996 2992 2989 2988 2986 2986 2983 2981 2978 2976 2972 2967 2962 2957 2954 2951 2950 2949 2948 2947 2946 2946 2945 2944 2944 2943 2941 2940 2938 2937 2936 2934 2933 2932 2931 2930 2929 2928 2928 2927 2927 2927 2927
2997 2994 2990 2989 2989 2987 2985 2984 2981 2979 2975 2971 2966 2961 2956 2953 2952 2950 2949 2948 2947 2947 2945 2945 2945 2943 2942 2941 2939 2937 2936 2934 2932 2931 2929 2928 2926 2925 2924 2924 2923 2922 2922 2921
2995 2992 2990 2989 2987 2985 2984 2982 2979 2977 2973 2969 2965 2960 2957 2953 2951 2950 2948 2948 2946 2945 2944 2944 2943 2941 2940 2938 2936 2934 2931 2928 2926 2924 2922 2921 2920 2918 2917 2917 2916 2915 2915 2914
2993 2991 2989 2986 2985 2983 2981 2979 2977 2974 2970 2967 2963 2959 2955 2952 2951 2949 2948 2947 2945 2943 2942 2942 2940 2938 2935 2932 2929 2927 2924 2922 2919 2916 2914 2912 2911 2910 2909 2908 2907 2907 2906 2906
2990 2987 2985 2984 2981 2980 2978 2976 2974 2971 2968 2965 2961 2957 2953 2951 2950 2948 2946 2945 2943 2942 2940 2937 2934 2932 2929 2926 2924 2920 2917 2914 2911 2908 2906 2904 2902 2901 2900 2899 2899 2898 2898 2897
2986 2983 2980 2979 2977 2976 2974 2972 2969 2967 2965 2962 2959 2957 2954 2951 2947 2945 2943 2942 2941 2938 2935 2931 2928 2926 2923 2920 2917 2913 2909 2905 2901 2898 2896 2894 2892 2891 2891 2890 2889 2889 2888 2888